Location: Kirkcaldy
(50.3333°N, 113.2333°W)
Time: 21:14:56
(UTC+00:00)

Envisat - Pass Details

Date: 12 June 2023
Orbit: 763 x 764 km, 98.2° (Epoch: 22 September)

Event Time Altitude Azimuth Distance (km) Brightness Sun altitude
Rises 10:09:01 0° 27° (NNE) 3,242 8.4 -8.8°
Reaches altitude 10° 10:12:08 10° 47° (NE) 2,310 7.1 -8.5°
Maximum altitude 10:15:27 17° 88° (E) 1,848 5.5 -8.2°
Drops below altitude 10° 10:18:46 10° 129° (SE) 2,299 5.5 -7.9°
Sets 10:21:50 0° 149° (SSE) 3,220 6.0 -7.6°
